Time,TemperatureF,DewpointF,PressureIn,WindDirection,WindDirectionDegrees,WindSpeedMPH,WindSpeedGustMPH,Humidity,HourlyPrecipIn,Conditions,Clouds,dailyrainin,SoftwareType,DateUTC
2013-09-05 00:12:00,73.0,59.0,29.85,North,5,1.0,3.0,61,0.00,,,0.00,,2013-09-05 05:12:00,
2013-09-05 00:23:00,72.0,59.0,29.85,North,355,0.0,1.0,64,0.00,,,0.00,,2013-09-05 05:23:00,
2013-09-05 00:43:00,72.0,59.0,29.86,North,355,0.0,1.0,63,0.00,,,0.00,,2013-09-05 05:43:00,
2013-09-05 00:52:00,73.0,60.0,29.86,North,355,0.0,2.0,63,0.00,,,0.00,,2013-09-05 05:52:00,
2013-09-05 01:12:00,73.0,59.0,29.86,NW,323,1.0,4.0,61,0.00,,,0.00,,2013-09-05 06:12:00,
2013-09-05 01:22:00,74.0,59.0,29.87,North,5,0.0,4.0,60,0.00,,,0.00,,2013-09-05 06:22:00,
2013-09-05 01:42:00,74.0,59.0,29.87,NNW,333,0.0,2.0,60,0.00,,,0.00,,2013-09-05 06:42:00,
2013-09-05 01:52:00,74.0,59.0,29.87,NNW,337,0.0,2.0,60,0.00,,,0.00,,2013-09-05 06:52:00,
2013-09-05 02:12:00,74.0,59.0,29.90,NNW,343,0.0,5.0,60,0.00,,,0.00,,2013-09-05 07:12:00,
2013-09-05 02:23:00,74.0,59.0,29.88,NNW,329,0.0,2.0,60,0.00,,,0.00,,2013-09-05 07:23:00,
2013-09-05 02:42:00,74.0,58.0,29.86,NNW,331,0.0,6.0,58,0.00,,,0.00,,2013-09-05 07:42:00,
2013-09-05 02:52:00,74.0,59.0,29.85,NNE,16,1.0,7.0,59,0.00,,,0.00,,2013-09-05 07:52:00,
2013-09-05 03:12:00,74.0,58.0,29.86,NW,326,1.0,5.0,58,0.00,,,0.00,,2013-09-05 08:12:00,
2013-09-05 03:22:00,74.0,59.0,29.86,NNE,24,0.0,3.0,59,0.00,,,0.00,,2013-09-05 08:22:00,
2013-09-05 03:42:00,73.0,59.0,29.86,NNE,24,0.0,2.0,61,0.00,,,0.00,,2013-09-05 08:42:00,
2013-09-05 03:52:00,71.0,58.0,29.86,NNE,22,0.0,2.0,64,0.00,,,0.00,,2013-09-05 08:52:00,
2013-09-05 04:11:00,71.0,59.0,29.85,NNE,22,0.0,1.0,66,0.00,,,0.00,,2013-09-05 09:11:00,
2013-09-05 04:22:00,70.0,59.0,29.85,North,355,0.0,3.0,67,0.00,,,0.00,,2013-09-05 09:22:00,
2013-09-05 04:43:00,70.0,59.0,29.85,North,355,0.0,2.0,68,0.00,,,0.00,,2013-09-05 09:43:00,
2013-09-05 04:53:00,69.0,58.0,29.85,North,355,0.0,1.0,68,0.00,,,0.00,,2013-09-05 09:53:00,
2013-09-05 05:12:00,69.0,58.0,29.85,North,5,1.0,4.0,68,0.00,,,0.00,,2013-09-05 10:12:00,
2013-09-05 05:23:00,69.0,58.0,29.85,North,355,2.0,4.0,68,0.00,,,0.00,,2013-09-05 10:23:00,
2013-09-05 05:43:00,69.0,58.0,29.85,NNE,15,1.0,3.0,68,0.00,,,0.00,,2013-09-05 10:43:00,
2013-09-05 05:53:00,68.0,58.0,29.85,NNE,15,2.0,4.0,71,0.00,,,0.00,,2013-09-05 10:53:00,
2013-09-05 06:12:00,68.0,58.0,29.85,NNE,24,0.0,3.0,71,0.00,,,0.00,,2013-09-05 11:12:00,
2013-09-05 06:22:00,69.0,58.0,29.84,North,5,0.0,3.0,69,0.00,,,0.00,,2013-09-05 11:22:00,
2013-09-05 06:42:00,69.0,58.0,29.84,North,5,0.0,2.0,69,0.00,,,0.00,,2013-09-05 11:42:00,
2013-09-05 06:52:00,69.0,58.0,29.84,North,11,0.0,3.0,68,0.00,,,0.00,,2013-09-05 11:52:00,
2013-09-05 07:13:00,69.0,58.0,29.84,North,355,1.0,3.0,68,0.00,,,0.00,,2013-09-05 12:13:00,
2013-09-05 07:21:00,69.0,58.0,29.85,North,355,0.0,3.0,68,0.00,,,0.00,,2013-09-05 12:21:00,
2013-09-05 07:42:00,69.0,58.0,29.85,North,360,1.0,3.0,68,0.00,,,0.00,,2013-09-05 12:42:00,
2013-09-05 07:52:00,69.0,58.0,29.85,North,360,1.0,3.0,67,0.00,,,0.00,,2013-09-05 12:52:00,
2013-09-05 08:12:00,70.0,58.0,29.85,NNE,17,0.0,2.0,66,0.00,,,0.00,,2013-09-05 13:12:00,
2013-09-05 08:21:00,70.0,59.0,29.86,NNE,29,2.0,4.0,67,0.00,,,0.00,,2013-09-05 13:21:00,
2013-09-05 08:42:00,70.0,58.0,29.86,NNW,332,0.0,3.0,66,0.00,,,0.00,,2013-09-05 13:42:00,
2013-09-05 08:53:00,71.0,58.0,29.86,NW,312,2.0,5.0,64,0.00,,,0.00,,2013-09-05 13:53:00,
2013-09-05 09:12:00,71.0,59.0,29.86,NW,319,0.0,3.0,65,0.00,,,0.00,,2013-09-05 14:12:00,
2013-09-05 09:22:00,72.0,58.0,29.86,North,355,1.0,3.0,62,0.00,,,0.00,,2013-09-05 14:22:00,
2013-09-05 09:42:00,73.0,58.0,29.87,North,360,0.0,3.0,60,0.00,,,0.00,,2013-09-05 14:42:00,
2013-09-05 09:52:00,73.0,59.0,29.88,North,350,0.0,1.0,61,0.00,,,0.00,,2013-09-05 14:52:00,
2013-09-05 10:11:00,74.0,59.0,29.88,North,360,0.0,4.0,59,0.00,,,0.00,,2013-09-05 15:11:00,
2013-09-05 10:22:00,77.0,60.0,29.88,North,360,0.0,2.0,56,0.00,,,0.00,,2013-09-05 15:22:00,
2013-09-05 10:44:00,78.0,58.0,29.88,SSW,192,0.0,4.0,50,0.00,,,0.00,,2013-09-05 15:44:00,
2013-09-05 10:54:00,78.0,58.0,29.88,SSW,205,0.0,2.0,50,0.00,,,0.00,,2013-09-05 15:54:00,
2013-09-05 11:13:00,78.0,58.0,29.88,NW,321,0.0,2.0,51,0.00,,,0.00,,2013-09-05 16:13:00,
2013-09-05 11:24:00,78.0,58.0,29.88,WNW,302,0.0,3.0,50,0.00,,,0.00,,2013-09-05 16:24:00,
2013-09-05 11:43:00,80.0,58.0,29.87,WNW,292,0.0,4.0,47,0.00,,,0.00,,2013-09-05 16:43:00,
2013-09-05 11:54:00,82.0,60.0,29.88,West,261,0.0,3.0,47,0.00,,,0.00,,2013-09-05 16:54:00,
2013-09-05 12:12:00,83.0,59.0,29.88,SSE,163,0.0,5.0,45,0.00,,,0.00,,2013-09-05 17:12:00,
2013-09-05 12:23:00,83.0,59.0,29.88,SSE,148,0.0,5.0,45,0.00,,,0.00,,2013-09-05 17:23:00,
2013-09-05 12:43:00,85.0,58.0,29.87,North,355,2.0,5.0,40,0.00,,,0.00,,2013-09-05 17:43:00,
2013-09-05 12:52:00,86.0,57.0,29.87,NW,323,0.0,7.0,38,0.00,,,0.00,,2013-09-05 17:52:00,
2013-09-05 13:12:00,87.0,58.0,29.86,NW,312,0.0,8.0,38,0.00,,,0.00,,2013-09-05 18:12:00,
2013-09-05 13:22:00,88.0,58.0,29.86,North,355,1.0,5.0,37,0.00,,,0.00,,2013-09-05 18:22:00,
2013-09-05 13:52:00,89.0,58.0,29.85,NNE,15,1.0,9.0,35,0.00,,,0.00,,2013-09-05 18:52:00,
2013-09-05 14:11:00,91.0,59.0,29.85,NNW,348,2.0,10.0,34,0.00,,,0.00,,2013-09-05 19:11:00,
2013-09-05 14:22:00,91.0,57.0,29.84,North,360,5.0,10.0,32,0.00,,,0.00,,2013-09-05 19:22:00,
2013-09-05 14:42:00,92.0,58.0,29.84,NNE,32,5.0,10.0,32,0.00,,,0.00,,2013-09-05 19:42:00,
2013-09-05 14:52:00,91.0,58.0,29.84,North,350,4.0,11.0,33,0.00,,,0.00,,2013-09-05 19:52:00,
2013-09-05 15:11:00,91.0,57.0,29.84,North,360,6.0,10.0,32,0.00,,,0.00,,2013-09-05 20:11:00,
2013-09-05 15:22:00,93.0,58.0,29.83,SSW,211,3.0,11.0,31,0.00,,,0.00,,2013-09-05 20:22:00,
2013-09-05 15:52:00,94.0,59.0,29.82,SE,132,3.0,8.0,31,0.00,,,0.00,,2013-09-05 20:52:00,
2013-09-05 16:12:00,94.0,58.0,29.82,NW,305,3.0,10.0,30,0.00,,,0.00,,2013-09-05 21:12:00,
2013-09-05 16:21:00,94.0,56.0,29.81,SSW,212,2.0,8.0,28,0.00,,,0.00,,2013-09-05 21:21:00,
2013-09-05 16:54:00,95.0,58.0,29.80,NW,304,2.0,8.0,29,0.00,,,0.00,,2013-09-05 21:54:00,
2013-09-05 17:13:00,95.0,59.0,29.80,West,275,2.0,12.0,30,0.00,,,0.00,,2013-09-05 22:13:00,
2013-09-05 17:24:00,95.0,58.0,29.80,West,271,1.0,11.0,29,0.00,,,0.00,,2013-09-05 22:24:00,
2013-09-05 17:53:00,94.0,60.0,29.80,NE,42,1.0,14.0,32,0.00,,,0.00,,2013-09-05 22:53:00,
2013-09-05 18:12:00,94.0,58.0,29.80,NNW,342,4.0,10.0,30,0.00,,,0.00,,2013-09-05 23:12:00,
2013-09-05 18:22:00,93.0,60.0,29.79,WNW,296,0.0,10.0,33,0.00,,,0.00,,2013-09-05 23:22:00,
2013-09-05 18:42:00,93.0,60.0,29.79,North,9,1.0,12.0,33,0.00,,,0.00,,2013-09-05 23:42:00,
2013-09-05 18:53:00,93.0,60.0,29.79,North,9,1.0,12.0,33,0.00,,,0.00,,2013-09-05 23:53:00,
2013-09-05 19:12:00,92.0,60.0,29.79,NW,315,1.0,9.0,34,0.00,,,0.00,,2013-09-06 00:12:00,
2013-09-05 19:22:00,91.0,59.0,29.78,NW,317,1.0,5.0,34,0.00,,,0.00,,2013-09-06 00:22:00,
2013-09-05 19:42:00,90.0,59.0,29.78,North,360,1.0,6.0,36,0.00,,,0.00,,2013-09-06 00:42:00,
2013-09-05 19:52:00,89.0,59.0,29.78,NNW,331,1.0,5.0,37,0.00,,,0.00,,2013-09-06 00:52:00,
2013-09-05 20:11:00,87.0,60.0,29.77,NNW,331,1.0,4.0,40,0.00,,,0.00,,2013-09-06 01:11:00,
2013-09-05 20:22:00,86.0,60.0,29.78,NNW,342,1.0,6.0,41,0.00,,,0.00,,2013-09-06 01:22:00,
2013-09-05 20:42:00,85.0,59.0,29.78,NNW,333,1.0,5.0,42,0.00,,,0.00,,2013-09-06 01:42:00,
2013-09-05 20:52:00,84.0,60.0,29.78,NW,309,0.0,5.0,44,0.00,,,0.00,,2013-09-06 01:52:00,
2013-09-05 21:22:00,82.0,59.0,29.80,WNW,292,1.0,5.0,46,0.00,,,0.00,,2013-09-06 02:22:00,
2013-09-05 21:42:00,81.0,58.0,29.80,NW,315,1.0,6.0,46,0.00,,,0.00,,2013-09-06 02:42:00,
2013-09-05 21:52:00,81.0,58.0,29.81,NW,318,1.0,6.0,46,0.00,,,0.00,,2013-09-06 02:52:00,
2013-09-05 22:11:00,80.0,59.0,29.81,NNW,333,1.0,5.0,48,0.00,,,0.00,,2013-09-06 03:11:00,
2013-09-05 22:22:00,80.0,59.0,29.81,NW,315,1.0,7.0,48,0.00,,,0.00,,2013-09-06 03:22:00,
2013-09-05 22:55:00,78.0,57.0,29.82,North,11,2.0,6.0,49,0.00,,,0.00,,2013-09-06 03:55:00,
2013-09-05 23:14:00,78.0,58.0,29.82,NW,321,2.0,6.0,50,0.00,,,0.00,,2013-09-06 04:14:00,
2013-09-05 23:23:00,77.0,58.0,29.82,WNW,302,1.0,5.0,52,0.00,,,0.00,,2013-09-06 04:23:00,
2013-09-05 23:54:00,76.0,58.0,29.82,NW,315,1.0,5.0,54,0.00,,,0.00,,2013-09-06 04:54:00,